Location: Gwatt
(46.7204°N, 7.6223°E)
Time: 22:10:08
(UTC+00:00)

Tiros 1 despin weight - Pass Details

Date: 24 January 2021
Orbit: 593 x 642 km, 48.2° (Epoch: 08 March)

Event Time Altitude Azimuth Distance (km) Brightness Sun altitude
Rises 16:55:10 0° 277° (W) 2,869 ? -6.1°
Reaches altitude 10° 16:57:29 10° 279° (W) 1,957 ? -6.5°
Maximum altitude 17:01:59 74° 6° (N) 627 ? -7.2°
Drops below altitude 10° 17:06:24 10° 91° (E) 1,931 ? -7.9°
Enters shadow 17:06:45 - 92° (E) 2,067 ? -8.0°
